Location: Rancho Del Sol Observatory
(38.7214°N, 120.6350°W)
Time: 19:58:15
(UTC-08:00)

A-11 Canister half - Pass Details

Date: 30 January 2020
Orbit: 1517 x 1683 km, 47.2° (Epoch: 19 February)

Event Time Altitude Azimuth Distance (km) Brightness Sun altitude
Rises 00:46:15 0° 276° (W) 4,731 - -68.0°
Reaches altitude 10° 00:49:30 10° 281° (WNW) 3,728 - -67.8°
Maximum altitude 00:58:35 51° 356° (N) 1,856 - -67.1°
Drops below altitude 10° 01:07:32 10° 71° (ENE) 3,678 - -66.2°
Exits shadow 01:09:58 - 76° (ENE) 4,428 11.6 -65.9°
Sets 01:10:43 0° 77° (ENE) 4,663 11.8 -65.9°
